TimePST,TemperatureF,Dew PointF,Humidity,Sea Level PressureIn,VisibilityMPH,Wind Direction,Wind SpeedMPH,Gust SpeedMPH,PrecipitationIn,Events,Conditions,WindDirDegrees,DateUTC
1:55 AM,36.0,34.0,93,30.32,10.0,Calm,Calm,-,N/A,,Overcast,0,2013-03-01 09:55:00
3:42 AM,37.4,33.8,87,30.28,9.0,Calm,Calm,-,N/A,,Scattered Clouds,0,2013-03-01 11:42:00
3:55 AM,36.0,33.1,89,30.31,8.0,Calm,Calm,-,N/A,,Clear,0,2013-03-01 11:55:00
4:55 AM,35.1,32.0,89,30.30,9.0,Calm,Calm,-,N/A,,Clear,0,2013-03-01 12:55:00
5:24 AM,33.8,32.0,93,30.26,7.0,Calm,Calm,-,N/A,,Scattered Clouds,0,2013-03-01 13:24:00
5:34 AM,33.8,32.0,93,30.27,7.0,Calm,Calm,-,N/A,,Mostly Cloudy,0,2013-03-01 13:34:00
5:55 AM,35.1,32.0,89,30.30,6.0,Calm,Calm,-,N/A,,Scattered Clouds,0,2013-03-01 13:55:00
6:55 AM,34.0,30.9,89,30.29,5.0,ENE,3.5,-,N/A,,Clear,60,2013-03-01 14:55:00
7:55 AM,34.0,32.0,92,30.28,4.0,Calm,Calm,-,N/A,,Clear,0,2013-03-01 15:55:00
8:55 AM,39.9,36.0,86,30.29,8.0,NE,4.6,-,N/A,,Partly Cloudy,50,2013-03-01 16:55:00
9:55 AM,44.1,37.9,79,30.29,10.0,Calm,Calm,-,N/A,,Clear,0,2013-03-01 17:55:00
10:55 AM,48.9,41.0,74,30.28,10.0,Calm,Calm,-,N/A,,Clear,0,2013-03-01 18:55:00
11:55 AM,53.1,42.1,66,30.27,10.0,Calm,Calm,-,N/A,,Clear,0,2013-03-01 19:55:00
2:55 PM,61.0,36.0,39,30.25,10.0,WSW,18.4,24.2,N/A,,Clear,250,2013-03-01 22:55:00
3:55 PM,62.1,35.1,37,30.25,10.0,West,15.0,21.9,N/A,,Clear,260,2013-03-01 23:55:00
4:55 PM,61.0,33.1,35,30.24,10.0,West,11.5,-,N/A,,Clear,270,2013-03-02 00:55:00
5:55 PM,57.9,33.1,39,30.24,10.0,WNW,15.0,-,N/A,,Clear,300,2013-03-02 01:55:00
6:55 PM,57.0,33.1,40,30.24,10.0,WNW,20.7,-,N/A,,Clear,290,2013-03-02 02:55:00
7:55 PM,55.9,34.0,44,30.24,10.0,WNW,23.0,28.8,N/A,,Clear,290,2013-03-02 03:55:00
8:55 PM,52.0,35.1,53,30.25,10.0,East,6.9,-,N/A,,Clear,80,2013-03-02 04:55:00
9:55 PM,53.1,35.1,50,30.25,10.0,Variable,3.5,-,N/A,,Clear,0,2013-03-02 05:55:00
10:55 PM,50.0,35.1,57,30.25,10.0,WNW,5.8,-,N/A,,Clear,300,2013-03-02 06:55:00
11:55 PM,48.9,35.1,59,30.25,10.0,West,6.9,-,N/A,,Clear,280,2013-03-02 07:55:00